Location: Bittelbronn
(48.4454°N, 8.5870°E)
Time: 05:55:20
(UTC+00:00)

Cosmos 724 - Pass Details

Date: 08 August 2024
Orbit: 862 x 932 km, 65.6° (Epoch: 07 September)

Event Time Altitude Azimuth Distance (km) Brightness Sun altitude
Rises 03:16:08 0° 149° (SSE) 3,444 7.3 -8.5°
Maximum altitude 03:22:04 10° 102° (ESE) 2,505 7.3 -7.7°
Drops below altitude 10° 03:22:10 10° 101° (E) 2,506 7.4 -7.7°
Sets 03:27:59 0° 55° (NE) 3,448 10.2 -6.9°
